Weather History for KPVB - November, 2013

Change the Weather History Date:

Monday, November 25, 2013

  Actual Average (KDBQ) Record (KDBQ)
Temperature  
Mean Temperature 26 °F 32 °F  
Max Temperature 30 °F 39 °F 65 °F (1896)
Min Temperature 21 °F 24 °F -6 °F (1977)
Degree Days  
Heating Degree Days 40 34  
Month to date heating degree days 674  
Since 1 July heating degree days 1323  
Cooling Degree Days 0 0  
Month to date cooling degree days 0  
Year to date cooling degree days 643  
Moisture  
Dew Point 21 °F    
Average Humidity 79    
Maximum Humidity 91    
Minimum Humidity 48    
Precipitation  
Precipitation 0.00 in 0.08 in 1.06 in (1992)
Month to date precipitation 1.97  
Year to date precipitation 34.07  
Snow  
Snow 0.00 in 0.10 in - ()
Month to date snowfall 1.8  
Since 1 July snowfall 1.8  
Since 1 September snowfall 1.8  
Snow Depth -    
Sea Level Pressure  
Sea Level Pressure 30.10 in    
Wind  
Wind Speed 16 mph (SW)    
Max Wind Speed 22 mph    
Max Gust Speed 29 mph    
Visibility 8 miles    
Events      
T = Trace of Precipitation, MM = Missing Value Source: NWS Daily Summary

Daily Weather History Graph

Daily Weather History Graph

Search for Another Location

Airport or City:

Trip Planner

Search our weather history database for the weather conditions in past years. The results will help you decide how hot, cold, wet, or windy it might be!

Date:

Astronomy

Nov. 25, 2013 Rise Set
Actual Time 7:05 AM CST 4:31 PM CST
Civil Twilight 6:34 AM CST 5:02 PM CST
Nautical Twilight 5:59 AM CST 5:37 PM CST
Astronomical Twilight 5:26 AM CST 6:11 PM CST
Moon No Moon Rise 12:17 PM CST (11/25)
Length of Visible Light 10h 28m
Length of Day
9h 25m
Waning Gibbous, 51% of the Moon is Illuminated
Nov 25
Waning Gibbous
Nov 25
Last Quarter
Dec 2
New
Dec 9
First Quarter
Dec 17
Full

Hourly Weather History & Observations

Time (CST) Temp. Windchill Dew Point Humidity Pressure Visibility Wind Dir Wind Speed Gust Speed Precip Events Conditions
12:15 AM 21.0 °F 6.6 °F 10.0 °F 63% 30.25 in 10.0 mi SSW 17.3 mph - N/A   Clear
12:35 AM 21.2 °F 6.8 °F 10.2 °F 63% 30.24 in 10.0 mi SSW 17.3 mph - N/A   Clear
12:55 AM 22.1 °F 7.6 °F 10.4 °F 61% 30.23 in 10.0 mi SSW 18.4 mph - N/A   Mostly Cloudy
1:15 AM 23.0 °F 9.6 °F 10.4 °F 59% 30.23 in 10.0 mi SSW 16.1 mph - N/A   Overcast
1:35 AM 23.5 °F 9.0 °F 10.2 °F 57% 30.22 in 10.0 mi SSW 19.6 mph 24.2 mph N/A   Overcast
1:55 AM 23.7 °F 10.1 °F 10.2 °F 56% 30.21 in 10.0 mi SSW 17.3 mph - N/A   Overcast
2:15 AM 23.9 °F 10.8 °F 10.4 °F 56% 30.21 in 10.0 mi SSW 16.1 mph - N/A   Overcast
2:35 AM 23.9 °F 10.3 °F 10.2 °F 56% 30.20 in 10.0 mi SSW 17.3 mph - N/A   Overcast
2:55 AM 24.4 °F 11.5 °F 9.9 °F 54% 30.19 in 10.0 mi SSW 16.1 mph 23.0 mph N/A   Mostly Cloudy
3:15 AM 24.8 °F 12.4 °F 9.7 °F 53% 30.18 in 10.0 mi SSW 15.0 mph - N/A   Mostly Cloudy
3:35 AM 25.3 °F 11.8 °F 8.4 °F 49% 30.16 in 10.0 mi SSW 18.4 mph 23.0 mph N/A   Scattered Clouds
3:55 AM 25.7 °F 12.7 °F 8.6 °F 48% 30.15 in 10.0 mi SSW 17.3 mph - N/A   Mostly Cloudy
4:15 AM 25.7 °F 11.9 °F 9.3 °F 50% 30.14 in 10.0 mi SSW 19.6 mph 25.3 mph N/A   Overcast
4:35 AM 25.5 °F 10.9 °F 10.6 °F 53% 30.14 in 10.0 mi SSW 21.9 mph 25.3 mph N/A   Overcast
4:55 AM 24.1 °F 9.0 °F 15.3 °F 69% 30.14 in 2.5 mi SSW 21.9 mph 28.8 mph N/A   Overcast
5:15 AM 23.5 °F 9.9 °F 18.5 °F 81% 30.13 in 1.2 mi SSW 17.3 mph 24.2 mph N/A   Overcast
5:35 AM 23.7 °F 9.3 °F 19.2 °F 83% 30.11 in 2.5 mi SSW 19.6 mph 25.3 mph N/A   Overcast
5:55 AM 23.0 °F 9.6 °F 20.3 °F 89% 30.11 in 0.5 mi SSW 16.1 mph - N/A   Overcast
6:15 AM 23.0 °F 9.6 °F 20.7 °F 91% 30.10 in 0.5 mi SSW 16.1 mph 23.0 mph N/A   Overcast
6:35 AM 23.0 °F 8.3 °F 20.8 °F 91% 30.09 in 0.8 mi SSW 19.6 mph 26.5 mph N/A   Overcast
6:55 AM 23.0 °F 8.0 °F 20.7 °F 91% 30.09 in 0.5 mi SSW 20.7 mph - N/A   Overcast
7:15 AM 22.8 °F 7.7 °F 20.3 °F 90% 30.08 in 0.2 mi SSW 20.7 mph - N/A   Overcast
7:35 AM 23.0 °F 9.2 °F 20.8 °F 91% 30.09 in 0.2 mi SW 17.3 mph - N/A   Overcast
7:55 AM 23.4 °F 11.1 °F 21.0 °F 91% 30.11 in 0.2 mi SW 13.8 mph - N/A   Overcast
8:15 AM 23.5 °F 11.8 °F 21.2 °F 91% 30.11 in 0.5 mi SSW 12.7 mph - N/A   Overcast
8:35 AM 23.9 °F 11.2 °F 21.6 °F 91% 30.11 in 1.0 mi SSW 15.0 mph - N/A   Overcast
8:55 AM 24.3 °F 11.7 °F 21.7 °F 90% 30.11 in 0.2 mi SW 15.0 mph - N/A   Overcast
9:15 AM 24.6 °F 12.7 °F 22.1 °F 90% 30.10 in 1.5 mi SSW 13.8 mph - N/A   Overcast
9:35 AM 25.2 °F 12.0 °F 22.6 °F 90% 30.09 in 2.0 mi SW 17.3 mph - N/A   Overcast
9:55 AM 25.7 °F 13.1 °F 22.6 °F 88% 30.09 in 5.0 mi SW 16.1 mph 19.6 mph N/A   Overcast
10:15 AM 26.2 °F 14.2 °F 22.8 °F 87% 30.09 in 10.0 mi SSW 15.0 mph 20.7 mph N/A   Overcast
10:35 AM 26.6 °F 13.8 °F 22.8 °F 86% 30.07 in 10.0 mi SW 17.3 mph 23.0 mph N/A   Overcast
10:55 AM 27.0 °F 14.3 °F 23.0 °F 85% 30.07 in 10.0 mi SW 17.3 mph - N/A   Overcast
11:15 AM 27.9 °F 16.8 °F 23.5 °F 84% 30.07 in 10.0 mi WSW 13.8 mph - N/A   Overcast
11:35 AM 28.4 °F 17.0 °F 23.7 °F 83% 30.06 in 10.0 mi SW 15.0 mph - N/A   Overcast
11:55 AM 28.4 °F 15.4 °F 23.7 °F 83% 30.05 in 10.0 mi SW 19.6 mph - N/A   Overcast
12:15 PM 28.4 °F 16.6 °F 23.9 °F 83% 30.05 in 10.0 mi WSW 16.1 mph 24.2 mph N/A   Overcast
12:35 PM 28.9 °F 17.7 °F 24.1 °F 82% 30.05 in 10.0 mi WSW 15.0 mph 21.9 mph N/A   Overcast
12:55 PM 28.9 °F 16.9 °F 23.9 °F 81% 30.04 in 10.0 mi WSW 17.3 mph 23.0 mph N/A   Overcast
1:15 PM 29.1 °F 17.5 °F 23.9 °F 81% 30.04 in 10.0 mi WSW 16.1 mph - N/A   Overcast
1:35 PM 29.3 °F 16.6 °F 23.9 °F 80% 30.04 in 10.0 mi WSW 19.6 mph 24.2 mph N/A   Overcast
1:55 PM 29.3 °F 19.1 °F 23.7 °F 80% 30.04 in 10.0 mi WSW 12.7 mph - N/A   Overcast
2:15 PM 29.7 °F 17.8 °F 23.5 °F 78% 30.04 in 10.0 mi WSW 17.3 mph 25.3 mph N/A   Overcast
2:35 PM 29.5 °F 18.8 °F 23.7 °F 79% 30.04 in 10.0 mi WSW 13.8 mph 23.0 mph N/A   Overcast
2:55 PM 29.8 °F 18.9 °F 23.9 °F 79% 30.04 in 10.0 mi WSW 15.0 mph - N/A   Overcast
3:15 PM 30.0 °F 19.1 °F 24.4 °F 80% 30.05 in 10.0 mi SW 15.0 mph - N/A   Overcast
3:35 PM 30.0 °F 18.7 °F 24.4 °F 80% 30.05 in 10.0 mi SW 16.1 mph - N/A   Overcast
3:55 PM 29.3 °F 17.7 °F 23.9 °F 80% 30.05 in 10.0 mi SW 16.1 mph - N/A   Scattered Clouds
4:15 PM 29.3 °F 19.1 °F 23.9 °F 80% 30.06 in 10.0 mi WSW 12.7 mph - N/A   Clear
4:35 PM 28.9 °F 18.6 °F 23.5 °F 80% 30.06 in 10.0 mi WSW 12.7 mph - N/A   Clear
4:55 PM 27.7 °F 18.2 °F 22.8 °F 82% 30.06 in 10.0 mi WSW 10.4 mph - N/A   Clear
5:15 PM 26.4 °F 16.6 °F 21.9 °F 83% 30.06 in 10.0 mi SW 10.4 mph - N/A   Clear
5:35 PM 26.6 °F 17.5 °F 22.3 °F 84% 30.06 in 10.0 mi SW 9.2 mph - N/A   Clear
5:55 PM 27.1 °F 18.2 °F 23.2 °F 85% 30.07 in 10.0 mi SW 9.2 mph - N/A   Mostly Cloudy
6:15 PM 28.4 °F 19.7 °F 24.1 °F 84% 30.07 in 10.0 mi SW 9.2 mph - N/A   Overcast
6:35 PM 28.9 °F 21.9 °F 24.4 °F 83% 30.07 in 10.0 mi SW 6.9 mph - N/A   Overcast
6:55 PM 29.3 °F 21.5 °F 24.8 °F 83% 30.07 in 10.0 mi SW 8.1 mph - N/A   Overcast
7:15 PM 29.7 °F 22.0 °F 25.2 °F 83% 30.07 in 10.0 mi SW 8.1 mph - N/A   Overcast
7:35 PM 29.7 °F 22.0 °F 25.3 °F 84% 30.07 in 10.0 mi SW 8.1 mph - N/A   Overcast
7:55 PM 29.8 °F 22.2 °F 25.5 °F 84% 30.07 in 10.0 mi SW 8.1 mph - N/A   Overcast
8:15 PM 29.8 °F 22.2 °F 25.5 °F 84% 30.07 in 10.0 mi SW 8.1 mph - N/A   Overcast
8:35 PM 30.0 °F 21.7 °F 25.7 °F 84% 30.07 in 10.0 mi SW 9.2 mph - N/A   Overcast
8:55 PM 30.0 °F 22.4 °F 25.7 °F 84% 30.07 in 10.0 mi SW 8.1 mph - N/A   Overcast
9:15 PM 30.2 °F 22.6 °F 26.1 °F 85% 30.07 in 10.0 mi SW 8.1 mph - N/A   Overcast
9:35 PM 30.6 °F 22.4 °F 26.2 °F 84% 30.07 in 10.0 mi SW 9.2 mph - N/A   Overcast
9:55 PM 30.6 °F 22.4 °F 26.4 °F 85% 30.07 in 10.0 mi SW 9.2 mph - N/A   Overcast
10:15 PM 30.2 °F 22.6 °F 26.4 °F 86% 30.07 in 10.0 mi SW 8.1 mph - N/A   Overcast
10:35 PM 30.6 °F 23.8 °F 26.6 °F 85% 30.07 in 10.0 mi SW 6.9 mph - N/A   Overcast
10:55 PM 30.6 °F 23.8 °F 26.6 °F 85% 30.07 in 10.0 mi SW 6.9 mph - N/A   Overcast
11:15 PM 30.2 °F 23.4 °F 26.4 °F 86% 30.06 in 10.0 mi SW 6.9 mph - N/A   Overcast
11:35 PM 30.4 °F 23.6 °F 26.6 °F 86% 30.06 in 10.0 mi SW 6.9 mph - N/A   Overcast
11:55 PM 30.2 °F 24.3 °F 26.4 °F 86% 30.05 in 10.0 mi SW 5.8 mph - N/A   Overcast